[[{"header":{"parameterUnit":"m.s-1","parameterCategory":1,"la1":30.2992,"la2":30.254,"lo1":-89.0895,"lo2":-89.0443,"dy":0.0025,"dx":0.0025,"nx":19,"ny":19,"refTime":"2026-04-16T03:00:00:Z","depth":0,"parameterNumber":2,"parameterNumberName":"U-component_of_WINDS"},"data":[0,0,0,-1.4942,-1.4944,-1.5039,-1.5039,-1.516,-1.5161,0,0,0,0,0,0,0,0,0,0,0,-1.4912,-1.4913,-1.4942,-1.4944,-1.5039,-1.5039,-1.516,-1.5161,0,0,0,0,0,0,0,0,0,0,0,-1.4912,-1.4912,-1.4913,-1.4944,-1.5038,-1.5039,-1.5159,-1.5088,0,0,0,0,0,0,0,0,0,0,-1.4997,-1.4967,-1.4912,-1.4913,-1.4945,-1.5038,-1.5039,-1.5085,-1.5093,-1.5116,0,-1.5135,0,-1.515,-1.5169,-1.5169,0,0,0,-1.4946,-1.496,-1.4987,-1.4913,-1.4946,-1.5038,-1.4996,-1.5089,-1.5098,-1.5127,-1.5137,-1.5141,-1.5152,-1.517,-1.517,-1.5295,-1.5296,0,0,-1.4941,-1.4928,-1.4981,-1.4993,-1.4976,-1.4993,-1.4999,-1.5095,-1.5106,-1.5137,-1.5144,-1.5154,-1.517,-1.5171,-1.5295,-1.5295,0,0,0,-1.4924,-1.4925,-1.4949,-1.4988,-1.5005,-1.4996,-1.5003,-1.5102,-1.5111,-1.5146,-1.5155,-1.5171,-1.5173,-1.5294,-1.5295,-1.5307,0,0,0,-1.4921,-1.4915,-1.4947,-1.4941,-1.5003,-1.5054,-1.5007,-1.5104,-1.5115,-1.5155,-1.5171,-1.5174,-1.5294,-1.5294,-1.5305,-1.5315,0,0,0,-1.4906,-1.4914,-1.4926,-1.494,-1.498,-1.5053,-1.5067,-1.5107,-1.5121,-1.5169,-1.5174,-1.5293,-1.5294,-1.5304,-1.5312,-1.5344,0,0,0,-1.4888,-1.4937,-1.4926,-1.4985,-1.4979,-1.5059,-1.5067,-1.5128,-1.5171,-1.5172,-1.5294,-1.5295,-1.5303,-1.5311,-1.5342,-1.5367,-1.5377,0,0,-1.4943,-1.4943,-1.4978,-1.4972,-1.505,-1.5045,-1.5127,-1.5178,-1.5195,-1.5261,-1.5264,-1.5306,-1.5312,-1.5343,-1.5433,-1.5441,0,0,0,-1.4992,-1.5017,-1.5041,-1.508,-1.512,-1.5155,-1.5195,-1.5214,-1.5271,-1.5226,-1.5326,-1.533,-1.5349,-1.5362,-1.5368,-1.5385,-1.53,-1.53,-1.53,-1.5053,-1.507,-1.513,-1.5159,-1.5197,-1.5238,-1.5271,-1.5304,-1.5312,-1.5335,-1.5354,-1.5407,-1.5421,-1.5426,-1.5443,-1.5369,-1.5369,-1.537,-1.537,-1.5136,-1.5174,-1.5182,-1.5242,-1.5261,-1.5313,-1.5354,-1.5357,-1.5409,-1.5393,-1.5411,-1.5392,-1.5433,-1.5449,-1.5371,-1.537,-1.537,-1.537,-1.537,-1.5178,-1.5199,-1.5221,-1.5279,-1.5322,-1.535,-1.5399,-1.5415,-1.543,-1.5447,-1.547,-1.547,-1.5471,-1.5457,-1.5457,-1.5457,-1.5457,-1.5458,-1.5458,-1.5213,-1.5237,-1.5275,-1.532,-1.5347,-1.5385,-1.5427,-1.5454,-1.5489,-1.5497,-1.5497,-1.5502,-1.5434,-1.5416,-1.5461,-1.546,-1.546,-1.5459,-1.5459,-1.529,-1.5275,-1.5334,-1.5361,-1.5416,-1.5458,-1.5477,-1.5532,-1.5557,-1.5581,-1.5583,-1.5529,-1.5531,-1.5526,-1.5512,-1.5578,-1.5578,-1.5578,-1.5578,-1.5326,-1.5327,-1.5391,-1.5433,-1.5476,-1.5499,-1.5567,-1.5599,-1.5631,-1.5648,-1.5641,-1.5623,-1.5618,-1.5623,-1.5616,-1.5603,-1.5691,-1.5691,-1.5691,-1.5374,-1.5381,-1.5434,-1.5463,-1.5507,-1.5545,-1.5609,-1.5659,-1.5692,-1.5696,-1.5662,-1.5657,-1.5629,-1.5618,-1.5622,-1.5611,-1.5587,0,0]},{"header":{"parameterUnit":"m.s-1","parameterCategory":1,"la1":30.2992,"la2":30.254,"lo1":-89.0895,"lo2":-89.0443,"dy":0.0025,"dx":0.0025,"nx":19,"ny":19,"refTime":"2026-04-16T03:00:00:Z","depth":0,"parameterNumber":3,"parameterNumberName":"V-component_of_WINDS"},"data":[0,0,0,3.3311,3.3313,3.3418,3.3418,3.355,3.3551,0,0,0,0,0,0,0,0,0,0,0,3.328,3.3281,3.331,3.3313,3.3418,3.3418,3.3549,3.3551,0,0,0,0,0,0,0,0,0,0,0,3.328,3.3281,3.3282,3.3314,3.3418,3.3418,3.3549,3.347,0,0,0,0,0,0,0,0,0,0,3.3369,3.3342,3.328,3.3282,3.3314,3.3418,3.3418,3.3467,3.3475,3.3502,0,3.3527,0,3.3541,3.356,3.356,0,0,0,3.3312,3.3334,3.3363,3.3282,3.3315,3.3417,3.337,3.3472,3.3481,3.3513,3.3529,3.3534,3.3543,3.356,3.3561,3.3718,3.3719,0,0,3.3306,3.3299,3.3356,3.3369,3.3355,3.3367,3.3374,3.3477,3.3493,3.3529,3.3537,3.3545,3.3561,3.3562,3.3717,3.3718,0,0,0,3.329,3.3295,3.332,3.3364,3.3383,3.337,3.3378,3.3489,3.3498,3.3538,3.3547,3.3562,3.3564,3.3717,3.3718,3.3747,0,0,0,3.3287,3.3285,3.3318,3.3314,3.3381,3.3437,3.3386,3.349,3.3503,3.3546,3.3562,3.3565,3.3716,3.3717,3.3745,3.3762,0,0,0,3.3273,3.3284,3.3299,3.3313,3.3358,3.3436,3.3451,3.3493,3.3508,3.356,3.3565,3.3715,3.3717,3.3743,3.3758,3.3799,0,0,0,3.3255,3.3325,3.33,3.338,3.3357,3.3455,3.345,3.3523,3.3571,3.3563,3.3716,3.3718,3.3742,3.3756,3.3797,3.3831,3.3846,0,0,3.3338,3.3334,3.3382,3.3363,3.3462,3.3439,3.3543,3.3594,3.3606,3.3679,3.3683,3.3746,3.3758,3.3799,3.3932,3.3944,0,0,0,3.3405,3.3439,3.3468,3.3514,3.3556,3.3592,3.3628,3.3647,3.371,3.3643,3.3773,3.3781,3.3805,3.3822,3.3831,3.3851,3.3726,3.3726,3.3725,3.351,3.3522,3.3601,3.3625,3.367,3.3707,3.3743,3.3774,3.3773,3.3804,3.3825,3.3905,3.3924,3.3931,3.3952,3.3846,3.3846,3.3846,3.3846,3.363,3.3679,3.3676,3.3751,3.3763,3.3826,3.3863,3.386,3.3918,3.389,3.3912,3.3877,3.3943,3.3962,3.3849,3.3848,3.3848,3.3848,3.3848,3.3698,3.3723,3.3746,3.3813,3.3863,3.3885,3.3941,3.395,3.3958,3.398,3.4002,3.4002,3.4,3.3991,3.3991,3.3991,3.3991,3.3992,3.3992,3.3758,3.3783,3.383,3.388,3.391,3.395,3.3987,3.4016,3.4051,3.4052,3.4052,3.4046,3.3949,3.3922,3.3996,3.3995,3.3995,3.3994,3.3994,3.3872,3.3848,3.392,3.395,3.4008,3.4056,3.4067,3.4125,3.4151,3.4178,3.4168,3.4095,3.4091,3.4083,3.4061,3.4166,3.4166,3.4166,3.4166,3.3927,3.3927,3.4002,3.4049,3.4097,3.4114,3.4193,3.4222,3.4248,3.4263,3.425,3.4223,3.4215,3.4215,3.4205,3.4184,3.4318,3.4319,3.4319,3.3996,3.4001,3.4067,3.4094,3.4139,3.4177,3.4251,3.4304,3.4328,3.4325,3.4275,3.4269,3.4225,3.4211,3.4204,3.4188,3.4151,0,0]}]]